GEFSCGP_500_meanwind_150.txt.gz
Wind_Speed
22 21 19 19 18 18 17 17 17 17 15 14 13 12 12 11 11 11 11 11 12 12 12 13 13 13 14 14 14 14 13 13 13 15 16 16 16 15 16 17 17 18 18 17
23 22 21 21 20 19 18 18 18 18 17 15 14 13 13 13 12 12 12 12 12 13 13 13 13 14 15 15 15 16 15 13 13 14 16 17 18 17 17 16 17 18 18 18
24 24 23 22 21 19 19 19 20 19 17 16 14 14 14 13 12 12 12 13 14 13 14 14 14 15 15 15 16 16 15 13 13 14 16 17 18 19 18 18 18 18 20 20
27 25 24 23 21 20 20 20 21 20 17 17 14 13 15 13 13 13 13 14 15 15 15 15 15 15 15 15 16 16 16 14 14 14 15 16 17 18 18 18 19 19 20 20
26 25 25 24 22 22 22 21 21 20 19 17 16 13 14 14 13 13 13 14 15 15 15 15 15 15 15 15 16 16 16 15 14 14 15 15 16 18 18 18 18 19 19 20
28 26 26 25 24 23 22 21 20 19 18 18 16 14 14 14 13 13 14 14 14 15 15 14 15 15 14 15 15 15 14 14 14 14 14 14 15 18 19 18 17 18 19 19
28 27 26 25 25 24 22 20 19 19 19 18 17 15 15 14 13 14 14 13 14 14 14 14 13 14 14 15 14 14 12 11 12 12 12 13 15 16 17 17 18 18 19 19
27 27 26 25 24 23 22 21 19 17 16 16 17 16 15 14 13 13 13 14 13 14 14 13 13 13 13 13 12 11 10 10 10 11 11 11 13 14 16 17 18 18 19 19
26 27 25 25 25 25 24 22 20 19 18 15 16 16 14 13 13 13 13 13 13 13 13 12 12 12 12 11 9 9 8 8 9 9 9 10 11 12 14 16 19 19 19 20
27 26 25 25 26 26 24 22 22 20 18 15 16 15 14 13 12 13 13 13 12 12 11 11 11 11 10 9 8 7 7 8 8 8 9 10 11 12 13 14 16 18 19 20
27 26 26 25 25 25 24 23 22 20 19 15 13 14 14 13 13 12 11 12 12 11 11 10 10 9 8 8 8 8 8 8 8 8 9 10 11 12 13 14 14 16 18 18
27 26 25 25 24 24 23 22 21 20 19 17 14 15 15 13 13 12 11 11 12 11 11 10 9 9 8 7 7 7 8 8 8 9 9 10 10 11 11 12 13 15 17 18
28 27 26 25 25 25 24 23 21 19 18 17 14 15 15 14 14 13 12 11 11 10 10 9 8 8 7 7 8 7 7 8 8 8 9 10 10 10 11 12 13 15 17 18
27 26 25 22 21 22 23 22 21 19 18 17 15 16 16 15 14 13 13 12 11 10 10 9 9 9 9 8 8 8 8 8 8 8 8 9 10 10 11 11 13 14 16 17
27 27 26 25 24 22 21 21 21 20 19 18 17 17 16 16 15 14 14 13 12 11 11 10 9 9 10 9 9 9 9 9 9 9 9 10 10 10 11 11 13 14 16 17
27 27 26 25 25 23 22 21 21 21 20 19 18 18 17 16 15 15 14 14 14 13 12 12 11 11 11 10 10 10 10 10 10 11 11 11 11 10 11 12 12 14 16 18
27 26 26 25 25 24 24 23 22 21 19 19 19 18 17 16 15 15 15 15 15 14 14 14 14 13 12 12 11 11 11 11 12 12 12 11 11 11 12 12 12 14 15 17
28 27 26 26 26 25 25 24 23 23 22 20 20 19 18 17 17 16 15 15 16 15 14 14 15 15 14 14 14 14 13 13 13 13 13 14 13 13 13 13 14 13 14 15
30 28 27 26 25 26 27 24 23 23 22 20 20 20 20 18 18 17 16 16 16 16 16 16 16 16 16 15 15 16 15 15 15 15 15 14 15 14 15 15 14 14 14 15
31 29 29 28 25 25 27 24 24 24 23 22 21 20 20 20 20 19 18 18 18 18 18 19 18 18 18 18 17 17 17 17 17 17 16 16 15 15 16 16 15 15 15 16
33 31 30 28 27 27 27 24 24 25 24 23 22 22 21 21 21 20 20 20 20 20 20 20 21 21 20 20 19 19 18 18 18 18 18 18 17 17 18 18 17 18 18 18
33 32 31 29 27 28 27 25 26 25 24 24 23 23 22 22 22 21 21 22 21 21 21 21 21 21 21 21 21 20 20 19 19 19 20 20 19 19 19 19 19 19 19 20
33 33 31 31 30 29 27 26 26 25 25 25 24 23 23 23 23 22 23 22 21 21 21 21 21 21 22 22 22 21 21 21 21 21 21 22 22 21 21 21 20 20 20 20
31 31 31 31 31 29 28 28 28 27 27 27 26 25 25 24 23 23 23 22 22 21 21 20 20 21 22 22 22 22 23 23 23 22 22 22 23 23 23 23 22 22 21 21
29 29 29 30 30 30 30 29 28 28 28 28 27 26 25 25 24 23 22 22 22 21 21 21 22 22 22 22 22 23 23 23 23 23 22 22 23 23 23 23 23 23 22 23
29 29 29 30 29 29 28 28 28 28 28 27 27 26 26 25 24 24 23 23 23 22 22 22 22 22 23 23 23 23 23 22 23 23 23 23 24 23 24 24 24 23 23 23

GEFSCGP_500_meanwind_156.txt.gz
Wind_Speed
21 20 18 16 15 14 13 12 12 12 16 16 13 12 13 16 16 16 17 17 15 13 13 13 13 13 13 13 14 14 15 14 14 13 12 12 13 14 15 14 14 15 15 15
23 21 18 18 18 18 17 16 14 14 18 17 16 15 15 16 17 16 17 16 16 14 14 13 13 14 14 15 15 15 16 15 15 14 13 12 13 13 14 15 14 15 15 15
23 20 21 21 20 19 19 18 16 15 17 18 16 15 15 17 17 16 16 16 16 15 14 14 14 15 15 16 16 17 17 17 16 15 15 14 13 14 15 15 16 15 16 16
25 23 22 22 21 20 19 19 19 18 17 17 16 16 17 18 16 16 15 17 17 16 14 14 14 15 16 17 17 17 18 18 17 16 16 15 13 14 15 16 16 16 17 16
26 25 25 23 22 21 19 18 19 19 19 18 16 16 17 20 18 15 14 16 17 17 15 15 15 16 17 18 18 18 19 18 17 17 17 16 14 15 16 16 16 15 16 16
26 26 26 24 23 23 21 20 20 19 19 19 16 17 18 18 17 15 16 16 17 16 16 17 16 16 17 18 18 18 18 17 17 16 16 15 14 14 14 14 15 14 15 16
27 26 25 24 24 23 22 20 18 17 17 15 13 16 18 18 18 17 17 17 18 17 17 17 17 17 17 18 18 18 18 17 16 16 15 13 13 13 13 13 14 14 15 16
25 25 25 25 23 22 22 21 19 15 13 13 13 15 16 18 19 19 19 20 19 18 18 18 18 17 17 18 18 18 17 16 15 14 14 12 11 12 13 14 14 15 15 16
21 22 23 24 23 23 22 22 18 16 13 14 14 14 17 18 20 20 19 20 19 19 19 18 18 17 17 17 16 16 15 14 13 12 12 12 11 11 12 13 14 14 15 16
20 19 21 23 24 24 22 20 20 20 18 16 15 18 19 18 18 19 18 19 18 18 18 18 17 16 16 16 15 13 13 13 11 11 11 11 11 11 12 13 14 15 15 16
25 21 20 22 24 23 24 24 23 22 21 17 16 18 19 20 18 18 18 18 17 17 17 17 15 16 15 14 13 12 12 11 10 10 10 10 11 11 12 13 13 13 14 15
28 24 22 22 22 21 22 23 24 24 22 19 18 20 20 17 16 17 18 18 17 17 16 16 14 14 14 13 12 12 12 11 11 10 10 10 10 11 12 12 13 14 14 15
30 29 26 23 23 22 23 23 23 23 21 20 19 22 21 17 16 19 19 18 18 17 16 15 14 14 13 12 12 12 11 11 11 10 10 10 11 11 12 12 13 13 13 14
31 33 29 23 21 21 21 22 23 23 22 21 22 24 23 20 19 20 20 19 18 17 15 14 13 13 12 12 12 12 12 12 11 11 11 10 10 10 11 12 13 13 13 13
33 33 32 27 22 22 20 19 22 24 23 22 23 25 25 24 20 20 19 19 18 17 16 15 14 13 13 13 12 12 12 12 11 11 11 10 10 11 11 12 12 12 13 14
33 33 31 29 25 20 20 20 21 23 23 23 24 25 25 26 23 21 19 20 19 18 16 16 15 14 14 14 13 13 13 12 12 12 12 12 11 12 12 12 12 12 13 13
31 33 32 28 25 24 23 22 22 22 23 24 26 26 25 24 22 21 20 19 19 18 18 17 16 16 15 16 15 15 15 14 14 14 14 13 13 13 13 12 12 12 13 14
32 32 32 29 28 27 24 21 21 22 24 26 26 27 26 24 22 23 21 20 20 20 19 18 17 17 17 17 16 16 15 15 15 15 15 14 14 14 14 13 13 14 14 15
32 32 32 30 28 26 24 24 24 25 26 27 28 27 27 26 25 24 23 22 20 19 19 19 18 18 18 18 17 17 16 16 16 16 16 16 15 15 15 15 15 15 16 16
33 32 32 32 30 28 28 27 27 27 28 28 29 27 26 26 24 23 22 22 20 19 19 19 19 19 19 18 18 18 18 18 18 17 17 17 17 16 16 17 17 17 17 17
34 34 34 33 31 30 30 29 27 29 29 29 29 28 28 27 26 23 21 21 20 20 20 20 20 20 20 20 20 20 19 19 19 19 19 19 18 18 18 18 18 19 18 18
34 34 34 35 34 32 33 31 31 31 29 28 28 26 27 26 25 23 22 22 22 22 21 21 21 21 21 21 21 21 21 21 21 21 20 20 20 19 19 19 19 20 19 19
34 34 34 36 37 36 33 32 31 30 29 28 28 27 27 27 25 24 23 23 23 22 22 22 22 22 22 22 21 21 22 22 22 22 21 21 21 20 20 20 20 20 20 20
36 36 37 37 38 35 33 32 32 30 29 28 28 28 27 26 26 25 24 24 23 22 22 22 22 22 22 21 21 21 22 22 22 22 22 21 21 21 21 21 21 21 21 21
36 37 37 38 38 36 34 34 32 29 29 28 28 27 28 28 27 26 26 25 25 24 23 23 23 22 22 21 22 21 21 21 22 22 22 22 21 21 21 21 22 22 22 22
35 38 40 39 38 35 34 33 32 31 29 30 30 29 29 29 28 27 27 27 26 25 24 24 24 24 23 23 22 22 22 22 22 22 22 22 22 22 23 23 23 23 23 23

GEFSCGP_500_meanwind_162.txt.gz
Wind_Speed
22 20 18 16 16 16 16 15 12 9 8 9 10 11 13 15 16 15 14 15 15 14 12 12 11 9 8 8 9 9 9 10 10 10 10 9 8 9 10 11 12 11 11 12
23 20 18 19 19 19 18 16 14 12 10 10 11 12 14 17 17 16 15 15 15 14 13 13 11 9 9 10 10 9 10 10 11 11 11 10 9 9 11 11 12 12 12 12
24 21 22 22 21 21 20 18 16 14 13 14 14 15 15 17 19 18 16 15 15 13 13 13 11 10 10 10 10 10 10 11 12 12 12 11 10 10 11 13 13 13 13 14
25 24 25 24 22 21 20 19 19 18 17 17 17 17 16 18 20 20 18 16 15 13 13 14 12 11 11 11 11 11 11 13 13 13 12 12 11 12 12 12 13 13 13 14
25 25 25 24 22 21 20 21 21 21 20 18 18 18 16 18 18 18 17 16 15 14 13 14 13 11 11 11 12 13 13 14 14 13 13 13 12 11 11 11 12 12 12 13
26 26 26 24 22 22 22 22 23 23 22 21 18 20 17 17 17 16 16 15 15 14 13 14 12 11 11 12 13 13 14 14 14 13 13 12 11 10 10 10 11 11 12 13
27 27 26 25 25 24 24 23 23 23 23 20 20 21 17 16 17 17 16 15 14 13 14 13 12 12 13 13 14 14 15 15 15 13 12 12 12 11 9 9 10 11 12 13
27 26 25 25 24 23 23 23 22 22 20 19 20 21 17 17 18 16 16 15 14 14 14 13 13 13 14 14 14 14 14 14 14 14 13 12 11 11 10 10 10 10 11 12
26 25 24 24 23 23 23 23 21 22 21 19 18 18 18 18 17 16 15 14 13 13 13 14 13 13 13 13 14 14 13 13 13 13 12 11 10 9 10 10 10 11 12 12
26 25 24 23 24 24 24 23 23 23 22 21 19 18 16 15 15 15 14 13 13 12 12 12 11 12 12 13 13 13 12 12 12 11 10 9 8 8 9 9 9 10 12 13
26 26 25 26 26 23 24 25 24 24 24 22 20 18 16 15 16 16 14 13 13 12 12 12 11 11 12 12 12 11 10 10 10 9 9 8 8 9 9 9 9 10 11 13
27 27 27 27 24 23 23 24 24 24 23 22 21 19 17 17 17 16 16 15 14 13 13 12 11 10 11 12 11 10 9 9 9 9 8 8 8 8 8 9 9 10 11 12
28 29 29 29 28 26 26 24 25 24 24 25 24 20 19 18 18 18 18 17 15 13 12 12 11 11 11 11 10 10 10 9 9 9 8 8 9 7 8 9 9 9 10 10
29 31 31 30 27 25 25 25 25 26 27 26 25 23 21 20 19 18 17 17 15 14 14 13 12 12 12 11 11 11 10 9 9 8 8 8 8 8 8 9 10 10 10 11
31 32 32 30 28 27 26 25 26 28 28 26 24 25 23 21 20 19 17 17 17 16 15 15 15 14 12 11 11 10 10 9 8 8 8 8 9 8 9 9 9 10 10 11
34 34 33 32 30 30 30 28 27 27 27 27 25 24 23 23 21 20 18 19 17 15 15 16 16 13 13 13 10 9 9 9 8 8 8 9 9 9 9 10 11 11 11 11
36 36 35 34 33 32 33 31 30 28 28 27 26 24 23 23 21 21 20 19 18 16 16 16 14 14 14 13 11 10 10 9 9 8 9 9 10 10 11 11 11 11 11 11
38 38 36 35 35 36 32 30 29 28 28 28 26 25 25 23 22 22 22 21 20 17 16 15 14 14 14 13 11 11 11 10 10 10 10 10 10 11 11 11 11 11 11 10
40 39 37 37 37 37 34 31 31 30 30 29 29 28 26 25 25 24 23 22 20 19 16 15 14 14 13 12 12 12 12 11 12 11 11 11 11 11 12 12 12 12 11 11
40 40 39 38 38 39 35 33 32 31 31 29 29 28 27 25 25 25 24 23 20 18 17 16 15 13 13 13 13 13 13 12 12 12 12 12 12 12 12 12 13 13 12 12
40 39 39 38 38 38 35 34 33 34 31 29 29 28 27 26 25 24 23 22 20 18 16 14 14 13 13 13 13 13 13 13 13 13 13 13 13 13 14 14 14 14 14 14
40 39 39 39 39 38 35 34 35 34 31 30 28 27 26 26 25 24 23 21 18 16 15 15 14 13 13 13 14 14 14 14 14 14 14 14 14 14 15 15 15 15 15 15
40 41 40 40 39 37 35 35 35 34 33 31 29 26 26 26 25 24 23 22 19 17 17 16 15 15 15 15 16 15 15 15 15 15 16 16 15 15 15 15 15 15 15 16
39 38 38 38 38 36 34 34 34 34 32 31 30 28 27 25 24 24 25 23 19 17 17 16 16 16 16 17 17 17 17 17 17 16 17 16 16 16 17 17 16 16 17 17
39 38 37 36 35 35 34 34 34 34 33 31 31 30 28 26 23 23 22 22 20 18 17 17 17 17 18 18 17 17 17 17 17 17 17 18 18 18 18 18 18 18 17 18
39 38 37 37 35 34 34 34 33 32 33 32 31 30 27 25 24 23 22 20 20 20 19 19 19 19 18 19 19 18 18 18 18 18 18 18 18 18 18 18 17 17 18 19

GEFSCGP_500_meanwind_168.txt.gz
Wind_Speed
24 22 20 19 19 19 18 16 15 14 14 12 11 9 8 6 6 6 6 7 8 10 10 10 9 9 9 9 9 9 8 8 8 8 8 9 9 8 9 9 10 11 11 11
25 23 22 22 21 21 19 18 16 16 16 14 12 11 9 8 7 7 6 6 8 10 9 10 11 9 9 10 9 9 8 9 9 9 10 10 9 9 10 10 11 12 12 13
25 24 24 24 23 22 21 20 19 19 18 17 15 13 12 10 9 8 7 7 8 10 10 10 11 10 10 10 10 9 9 10 11 11 11 10 10 11 10 11 12 13 13 14
27 27 26 25 24 22 22 21 21 21 21 20 18 16 12 12 11 9 9 8 9 10 11 11 12 11 10 10 10 10 10 11 11 12 12 12 12 12 12 11 11 12 13 14
28 28 27 25 24 24 23 24 24 24 23 22 20 18 14 14 12 10 9 9 10 11 12 12 12 12 11 10 10 10 10 11 12 12 13 13 13 13 12 12 12 11 13 13
30 29 28 26 26 26 25 26 27 26 25 24 21 20 16 15 13 12 11 11 12 13 13 13 12 12 12 11 10 11 11 12 13 13 13 14 13 11 10 11 11 12 13 12
31 30 29 28 29 28 28 27 27 27 26 24 21 21 18 16 15 13 12 11 12 12 12 13 13 12 12 12 12 12 12 13 13 13 13 13 12 11 10 10 10 11 12 12
31 30 29 28 28 29 28 28 27 27 25 23 22 22 18 17 15 14 12 11 10 11 11 12 12 13 13 13 13 13 13 13 13 13 13 13 12 11 11 11 11 11 12 13
30 29 29 28 28 29 29 28 27 27 26 25 23 21 18 17 16 15 14 13 12 12 11 11 12 13 13 12 12 13 13 13 13 14 13 13 12 11 10 10 11 11 11 12
31 30 29 29 30 30 29 28 28 28 27 25 23 20 18 17 16 16 15 13 13 13 12 12 13 13 13 13 13 13 13 13 13 13 13 13 12 10 9 10 10 11 12 13
31 30 30 30 30 29 29 29 28 28 27 25 23 19 17 17 16 15 14 14 13 12 12 12 12 13 13 13 12 12 12 12 12 12 12 12 11 10 9 9 9 11 11 12
30 30 30 31 30 30 30 29 27 27 26 24 22 18 16 15 14 14 14 13 12 12 12 11 12 13 12 12 11 11 12 12 12 11 11 10 10 10 10 9 10 11 11 12
32 31 30 30 31 31 30 29 28 27 26 25 23 19 16 16 14 14 13 13 13 13 12 11 12 12 12 11 11 11 11 11 11 11 10 10 10 9 9 9 9 10 11 13
31 30 29 28 28 28 28 28 28 27 27 25 22 19 17 16 15 15 14 13 13 12 12 12 12 12 12 11 10 11 11 10 11 11 11 11 10 10 10 10 10 10 11 12
32 30 29 28 27 28 27 27 27 27 26 24 21 20 18 17 16 16 15 14 13 13 13 13 13 12 12 11 11 11 11 11 11 11 11 11 10 10 10 10 11 12 13 13
32 31 30 29 29 29 28 27 27 26 26 25 23 21 19 17 16 16 16 15 14 14 13 12 12 11 12 11 12 12 12 11 12 12 11 11 11 10 10 10 11 12 13 14
32 31 31 30 29 30 30 28 27 26 25 25 24 22 21 19 18 17 16 16 15 14 13 13 12 12 12 13 13 13 12 12 11 10 10 10 9 9 10 10 11 12 12 13
31 31 31 30 30 32 29 28 27 27 26 25 24 22 21 20 18 17 16 16 16 15 15 14 14 14 14 14 14 13 13 13 11 10 9 9 9 10 11 11 12 12 13 13
32 32 31 31 32 31 29 28 28 27 27 25 24 22 22 21 20 19 17 17 17 16 15 15 16 16 15 14 14 13 13 12 11 10 10 10 11 11 11 12 12 13 13 12
34 33 33 33 32 33 30 29 28 28 27 25 25 24 23 22 21 19 18 18 18 17 17 17 16 16 16 15 13 12 12 12 11 11 11 11 12 12 13 13 13 12 12 12
36 36 35 35 34 33 31 30 29 29 27 25 25 25 24 23 21 20 20 20 19 18 17 17 17 17 17 15 13 13 12 13 13 13 12 13 13 13 13 13 13 13 14 14
39 38 38 37 36 35 32 32 31 30 28 27 26 25 25 24 23 22 20 20 19 18 18 17 17 16 16 16 14 14 14 13 14 14 13 13 14 14 14 15 15 15 15 16
41 40 39 38 37 35 34 34 32 31 30 28 26 25 25 24 24 23 22 21 20 20 20 18 17 17 17 15 15 15 14 14 14 14 14 15 15 16 16 16 17 17 18 18
41 41 40 39 38 36 35 34 33 32 31 29 27 26 25 24 24 23 23 22 22 21 20 17 17 17 16 16 15 15 15 15 15 15 15 16 17 17 17 17 17 18 19 19
41 41 39 39 37 36 34 34 33 32 31 31 30 28 26 25 25 25 24 23 23 22 21 20 19 17 16 16 15 16 16 16 16 16 16 16 17 18 18 19 19 19 19 20
38 38 38 37 36 35 34 33 32 32 31 30 30 28 27 25 25 26 25 25 24 23 21 20 19 18 18 17 16 16 17 17 16 16 16 17 18 18 19 19 19 19 19 20